Regional Weather Roundup
Issued by NWS State College, PA

Home | Current Version | Previous Version | Graphics & Text | Print | Product List | Glossary Off
Versions: 1 2 3 4 5 6 7 8 9 10 11 12 13 14 15 16 17 18 19 20 21 22 23 24 25 26 27 28 29 30 31 32 33 34 35 36 37 38 39 40 41 42 43 44 45 46 47 48 49 50

000
ASUS41 KCTP 310503
RWRCTP

REGIONAL WEATHER ROUNDUP
NATIONAL WEATHER SERVICE STATE COLLEGE PA
100 AM EDT WED AUG 31 2016

Note: "fair" indicates few or no clouds below 12,000 feet with no
significant weather and/or obstructions to visibility.

* = STATION THAT DOES NOT REPORT PRECIPITATION /E.G. RAIN...SNOW...ETC/
    THUNDER OR FOG.

PAZ002>004-007>009-013>016-020>023-029>032-310600-
WESTERN PENNSYLVANIA

CITY           SKY/WX    TMP DP  RH WIND       PRES   REMARKS
ERIE           MOCLDY    72  64  76 S5        30.03F
MEADVILLE      MOCLDY    66  61  84 CALM      30.08S
FRANKLIN*        N/A    N/A N/A N/A MISG        N/A
NEW CASTLE     FAIR      61  59  93 CALM      30.07S
BEAVER COUNTY  NOT AVBL
BUTLER*        NOT AVBL
PITTSBURGH INT PTCLDY    67  57  70 CALM      30.06F
PITTSBURGH     MOCLDY    67  57  70 S7        30.07F
INDIANA*       CLEAR     63  61  94 CALM      30.12S
LATROBE        MOCLDY    59  59 100 CALM      30.09S
WASHINGTON CO* CLOUDY    57  55  94 CALM      30.08S
$$

PAZ004>006-010>012-017>019-024>028-033>037-041-042-045-046-049>053-310600-
CENTRAL PENNSYLVANIA

CITY           SKY/WX    TMP DP  RH WIND       PRES   REMARKS
BRADFORD       CLOUDY    61  60  97 E3        30.10F
DUBOIS         PTCLDY    63  59  87 E3        30.09F
CLEARFIELD     NOT AVBL
JOHNSTOWN      PTCLDY    68  56  65 S3        30.13F
ALTOONA        CLOUDY    63  61  93 W3        30.11F
STATE COLLEGE  PTCLDY    63  58  86 SW3       30.08F
WILLIAMSPORT   PTCLDY    67  62  84 CALM      30.04S
SELINSGROVE    CLEAR     62  62 100 CALM      30.06S
FT INDIANTOWN  CLEAR     63  62  94 CALM      30.06S
CAPITAL CITY   CLEAR     69  62  78 SW5       30.06S
HARRISBURG     MOCLDY    72  65  78 CALM      30.05S
YORK           CLEAR     64  63  96 CALM      30.06S
$$

PAZ038>040-043-044-047-048-054-055-060>062-067>071-310600-
EASTERN PENNSYLVANIA

CITY           SKY/WX    TMP DP  RH WIND       PRES   REMARKS
SCRANTON       PTCLDY    66  59  78 E6        30.06F
MOUNT POCONO   PTCLDY    57  55  93 NE3       30.11F
ALLENTOWN      PTCLDY    65  60  84 NW3       30.06S
QUAKERTOWN*    CLOUDY    63  59  88 CALM      30.07S
READING        PTCLDY    68  61  78 W3        30.05S
LANCASTER      CLEAR     66  63  90 SE3       30.06S
COATESVILLE    CLOUDY    66  59  77 NW3       30.08S
POTTSTOWN      CLOUDY    65  60  84 CALM      30.07S
BLUE BELL      PTCLDY    64  64 100 CALM      30.05S
DOYLESTOWN     CLOUDY    72  70  93 CALM      30.05F
WILLOW GROVE   NOT AVBL
NORTH PHILA    CLEAR     75  72  90 SE3       30.06F
PHILADELPHIA   MOCLDY    74  71  91 E6        30.05F
$$




USA.gov is the U.S. government's official web portal to all federal, state and local government web resources and services.